Regional Weather Roundup
Issued by NWS Sioux Falls, SD

Home | Current Version | Previous Version | Graphics & Text | Print | Product List | Glossary On
Versions: 1 2 3 4 5 6 7 8 9 10 11 12 13 14 15 16 17 18 19 20 21 22 23 24 25 26 27 28 29 30 31 32 33 34 35 36 37 38 39 40 41 42 43 44 45 46 47 48 49 50
000
ASUS43 KFSD 301902
RWRFSD

WEATHER ROUNDUP FOR SE SOUTH DAKOTA/SW MINNESOTA/NW IOWA
NATIONAL WEATHER SERVICE SIOUX FALLS SD
200 PM CDT SAT APR 30 2016

NOTE: "FAIR" INDICATES FEW OR NO CLOUDS BELOW 12,000 FEET WITH NO
SIGNIFICANT WEATHER AND OR OBSTRUCTIONS TO VISIBILITY.


SDZ038>040-050-052>070-302000-
SOUTHEAST SOUTH DAKOTA

CITY           SKY/WX    TMP DP  RH WIND       PRES   REMARKS
BROOKINGS      CLOUDY    46  36  68 E21G35    29.97S
CHAMBERLAIN    NOT AVBL
HURON          CLOUDY    50  37  61 NE22G31   29.99F
MADISON        MIX PCPN  41  41 100 E28G33    29.95F
MITCHELL       LGT RAIN  45  40  82 NE25      29.94F
SIOUX FALLS    LGT RAIN  44  41  89 NE29G37   29.90F FOG
WINNER         LGT RAIN  44  37  76 NE26G35   29.95S
YANKTON        CLOUDY    45  41  87 NE21      29.86S
$$

MNZ071-072-080-081-089-090-097-098-302000-
SOUTHWEST MINNESOTA

CITY           SKY/WX    TMP DP  RH WIND       PRES   REMARKS
FAIRMONT       CLOUDY    43  34  70 NE17G23   29.98R
JACKSON        LGT SNOW  43  39  87 E22G30    29.98R
LUVERNE        LGT RAIN  43  41  93 NE29G40   29.87F
MARSHALL       CLOUDY    50  37  61 E20G28    30.01S
MONTEVIDEO     CLOUDY    54  36  50 E25       30.06F
REDWOOD FALLS  CLOUDY    53  33  46 E20G29    30.02F
TRACY          CLOUDY    49  39  68 E15G23    30.01R
WINDOM         LGT RAIN  45  39  81 NE17G25   29.99R
WORTHINGTON    RAIN      43  41  93 NE29G37   29.93S FOG
$$

IAZ001>003-012>014-020>022-031-032-NEZ013-014-SDZ071-302000-
NORTHWEST IOWA

CITY           SKY/WX    TMP DP  RH WIND       PRES   REMARKS
DENISON        CLOUDY    46  45  93 E21G29    29.75S FOG
ESTHERVILLE    RAIN      43  42  97 NE18      29.96R FOG
SIOUX CITY     CLOUDY    48  42  80 E21G29    29.80S
SPENCER        RAIN      45  43  93 NE45G61   29.80F FOG
STORM LAKE     CLOUDY    45  43  93 E21G28    29.83R
$$

ABBREVIATIONS USED IN REMARKS
   TC - TEMPERATURE IN CELSIUS
  WCI - WIND CHILL INDEX
   HX - HEAT INDEX
  VSB - VISIBILITY





USA.gov is the U.S. government's official web portal to all federal, state and local government web resources and services.